Date_and_time,latitude,longitude,wind_speed,RelWindDirFrom,WindDirFrom,air_pressure,air_temperature,relative_humidity,Temp,platform_speed_wrt_ground,air_pressure_at_mean_sea_level,platform_orientation
2018-10-24 00:00,50.63043,-96.98075,9.4,11.2,135,1000.21,4.0,71,4.24,0.0,1027.99,176.8
2018-10-24 00:10,50.63043,-96.9807516666667,9.9,11.8,128,1000.19,4.1,72,4.24,0.0,1027.97,176.8
2018-10-24 00:20,50.6304266666667,-96.9807516666667,10.3,12.3,121,1000.19,4.0,73,4.24,0.0,1027.98,176.8
2018-10-24 00:30,50.6304283333333,-96.980755,11.4,14.7,124,1000.13,4.0,72,4.23,0.0,1027.94,176.8
2018-10-24 00:40,50.6304283333333,-96.98076,11.6,13.4,123,1000.07,3.9,73,4.23,0.0,1027.88,176.8
2018-10-24 00:50,50.6304283333333,-96.9807616666667,11.6,13.1,124,1000.03,3.8,77,4.23,0.0,1027.83,176.8
2018-10-24 01:00,50.6304283333333,-96.98076,12.0,13.9,125,999.96,3.8,78,4.23,0.0,1027.76,0.0
2018-10-24 01:10,50.6304283333333,-96.9807583333333,12.2,14.4,126,1000.01,3.7,77,4.23,0.0,1027.83,0.0
2018-10-24 01:20,50.6304283333333,-96.98076,11.9,14.1,134,999.95,3.7,76,4.22,0.0,1027.77,0.0
2018-10-24 01:30,50.63043,-96.9807616666667,10.3,14.2,140,999.87,3.3,76,4.22,0.0,1027.71,0.0
2018-10-24 01:40,50.6304316666667,-96.9807616666667,11.3,14.0,144,999.74,2.9,76,4.22,0.0,1027.60,0.0
2018-10-24 01:50,50.6304316666667,-96.9807616666667,11.9,13.9,147,999.63,2.6,78,4.22,0.0,1027.49,0.0
2018-10-24 02:00,50.6304316666667,-96.9807633333333,11.6,13.6,147,999.57,2.5,78,4.21,0.0,1027.42,270.0
2018-10-24 02:10,50.6304316666667,-96.9807633333333,9.9,13.4,144,999.55,2.7,80,4.21,0.0,1027.40,270.0
2018-10-24 02:20,50.63043,-96.9807633333333,11.1,14.2,143,999.50,2.7,79,4.20,0.0,1027.35,270.0
2018-10-24 02:30,50.63043,-96.9807633333333,11.4,14.1,146,999.51,2.5,79,4.20,0.0,1027.37,270.0
2018-10-24 02:40,50.63043,-96.9807633333333,12.6,14.9,149,999.48,2.3,78,4.20,0.0,1027.35,270.0
2018-10-24 02:50,50.63043,-96.9807633333333,13.1,15.3,150,999.40,2.4,80,4.20,0.0,1027.28,270.0
2018-10-24 03:00,50.63043,-96.9807633333333,13.1,15.3,146,999.46,2.3,79,4.19,0.0,1027.33,270.0
2018-10-24 03:10,50.63043,-96.9807616666667,11.8,14.4,145,999.50,2.4,80,4.19,0.0,1027.38,270.0
2018-10-24 03:20,50.63043,-96.9807616666667,11.6,14.4,145,999.45,2.2,80,4.19,0.0,1027.36,270.0
2018-10-24 03:30,50.63043,-96.9807616666667,12.5,14.5,155,999.33,2.1,79,4.19,0.0,1027.26,270.0
2018-10-24 03:40,50.6304283333333,-96.98076,12.3,14.9,157,999.25,2.2,80,4.18,0.0,1027.18,270.0
2018-10-24 03:50,50.6304116666667,-96.9807516666667,11.8,15.5,160,999.20,2.2,80,4.18,0.0,1027.13,270.0
2018-10-24 04:00,50.6304283333333,-96.9807716666667,12.9,16.6,159,999.21,2.3,79,4.18,0.0,1027.13,270.0
2018-10-24 04:10,50.6304483333333,-96.980775,13.8,16.3,156,999.12,2.3,78,4.17,0.0,1027.04,270.0
2018-10-24 04:20,50.63043,-96.9807583333333,13.2,16.9,157,999.04,2.3,79,4.17,0.0,1026.98,270.0
2018-10-24 04:30,50.6304266666667,-96.98075,14.1,16.7,157,998.96,2.2,77,4.17,0.0,1026.90,270.0
2018-10-24 04:40,50.6304266666667,-96.980755,12.9,15.0,157,998.92,2.2,80,4.17,0.0,1026.86,270.0
2018-10-24 04:50,50.63043,-96.9807583333333,13.1,16.1,160,998.84,2.2,79,4.17,0.0,1026.78,270.0
2018-10-24 05:00,50.6304316666667,-96.9807583333333,12.9,17.3,164,998.82,2.2,79,4.17,0.0,1026.76,90.0
2018-10-24 05:10,50.6304333333333,-96.9807583333333,12.8,16.7,163,998.82,2.0,78,4.17,0.0,1026.78,90.0
2018-10-24 05:20,50.6304333333333,-96.98076,12.1,16.3,170,998.76,2.0,80,4.16,0.0,1026.72,90.0
2018-10-24 05:30,50.6304333333333,-96.98076,12.3,16.2,171,998.66,1.9,80,4.16,0.0,1026.61,90.0
2018-10-24 05:40,50.6304383333333,-96.9807583333333,12.0,14.7,174,998.57,1.9,80,4.15,0.0,1026.52,90.0
2018-10-24 05:50,50.63044,-96.980775,9.9,13.1,182,998.53,1.6,83,4.15,0.0,1026.49,90.0
2018-10-24 06:00,50.6304366666667,-96.9807616666667,10.8,13.7,179,998.42,1.4,83,4.14,0.0,1026.40,14.5
2018-10-24 06:10,50.6304366666667,-96.980765,8.1,10.9,187,998.47,1.2,85,4.14,0.0,1026.46,14.5
2018-10-24 06:20,50.6304366666667,-96.98076,7.2,8.5,189,998.52,0.7,83,4.13,0.0,1026.53,14.5
2018-10-24 06:30,50.6304366666667,-96.9807583333333,8.1,10.1,187,998.45,0.5,82,4.13,0.0,1026.47,14.5
2018-10-24 06:40,50.630435,-96.98076,8.4,10.2,188,998.34,0.4,82,4.12,0.0,1026.36,14.5
2018-10-24 06:50,50.6304216666667,-96.9807783333333,8.1,9.6,191,998.24,0.3,84,4.12,0.0,1026.27,14.5
2018-10-24 07:00,50.6304283333333,-96.9807716666667,8.1,10.2,190,998.22,0.1,83,4.11,0.0,1026.26,0.0
2018-10-24 07:10,50.6304066666667,-96.980735,6.8,8.3,189,998.22,-0.1,82,4.10,0.0,1026.27,0.0
2018-10-24 07:20,50.630425,-96.980765,6.8,8.4,181,998.23,-0.1,79,4.09,0.0,1026.29,0.0
2018-10-24 07:30,50.63042,-96.9807783333333,6.1,7.5,175,998.27,-0.2,80,4.08,0.0,1026.34,0.0
2018-10-24 07:40,50.6304333333333,-96.980755,5.6,7.4,172,998.31,0.1,81,4.09,0.0,1026.38,0.0
2018-10-24 07:50,50.63043,-96.9807633333333,8.7,13.1,174,998.16,0.5,81,4.09,0.0,1026.22,0.0
2018-10-24 08:00,50.63043,-96.980765,9.7,12.5,179,998.07,0.8,81,4.09,0.0,1026.12,192.6
2018-10-24 08:10,50.6304233333333,-96.9807633333333,11.6,13.8,181,997.88,0.6,81,4.09,0.0,1025.95,192.6
2018-10-24 08:20,50.6304616666667,-96.9807483333333,12.0,14.5,183,997.67,0.5,82,4.08,0.0,1025.76,192.6
2018-10-24 08:30,50.630425,-96.9807533333333,11.5,13.9,185,997.57,0.5,83,4.06,0.0,1025.66,192.6
2018-10-24 08:40,50.6304283333333,-96.9807533333333,9.9,12.2,188,997.58,0.4,86,4.04,0.0,1025.68,192.6
2018-10-24 08:50,50.6304283333333,-96.9807516666667,9.8,11.3,189,997.51,0.1,84,4.04,0.0,1025.64,192.6
2018-10-24 09:00,50.63043,-96.9807566666667,10.1,12.3,188,997.45,-0.1,82,4.02,0.0,1025.59,360.0
2018-10-24 09:10,50.63043,-96.9807533333333,10.2,11.9,189,997.35,-0.2,82,4.01,0.0,1025.50,360.0
2018-10-24 09:20,50.6304383333333,-96.9807633333333,10.6,13.0,191,997.21,-0.4,81,4.01,0.0,1025.36,360.0
2018-10-24 09:30,50.6304333333333,-96.980755,10.8,13.2,192,997.01,-0.4,80,4.00,0.0,1025.15,360.0
2018-10-24 09:40,50.6304333333333,-96.9807533333333,9.8,12.1,193,996.95,-0.5,79,3.99,0.0,1025.07,360.0
2018-10-24 09:50,50.6304333333333,-96.980755,7.7,9.9,189,996.98,-0.7,79,3.97,0.0,1025.10,360.0
2018-10-24 10:00,50.63043,-96.98079,8.3,10.9,185,996.90,-0.8,79,3.96,0.0,1025.02,270.0
2018-10-24 10:10,50.6304316666667,-96.980775,9.9,11.4,186,996.67,-0.8,80,3.94,0.0,1024.80,270.0
2018-10-24 10:20,50.6304333333333,-96.9807716666667,9.8,12.1,187,996.47,-0.7,81,3.93,0.0,1024.59,270.0
2018-10-24 10:30,50.63042,-96.9807566666667,10.4,12.1,185,996.30,-0.6,81,3.93,0.0,1024.41,270.0
2018-10-24 10:40,50.630435,-96.9807633333333,10.4,12.6,184,996.18,-0.7,82,3.91,0.0,1024.31,270.0
2018-10-24 10:50,50.6304316666667,-96.9807633333333,10.3,12.1,187,996.11,-0.8,82,3.90,0.0,1024.25,270.0
2018-10-24 11:00,50.6304083333333,-96.98071,11.8,14.4,188,995.89,-0.8,81,3.88,0.0,1024.03,117.6
2018-10-24 11:10,50.630445,-96.9807916666667,12.0,15.1,191,995.62,-0.8,82,3.85,0.0,1023.76,117.6
2018-10-24 11:20,50.630435,-96.98076,11.4,14.2,195,995.49,-0.8,82,3.82,0.0,1023.64,117.6
2018-10-24 11:30,50.630425,-96.98075,9.8,12.6,195,995.42,-0.9,81,3.81,0.0,1023.57,117.6
2018-10-24 11:40,50.6304316666667,-96.9807616666667,8.5,11.4,198,995.30,-0.7,80,3.78,0.0,1023.45,117.6
2018-10-24 11:50,50.63043,-96.98076,7.4,9.4,198,995.27,-0.8,80,3.78,0.0,1023.43,117.6
2018-10-24 12:00,50.63043,-96.9807683333333,7.2,9.2,193,995.13,-0.8,81,3.78,0.0,1023.28,270.0
2018-10-24 12:10,50.6304316666667,-96.9807716666667,8.5,11.1,188,994.94,-0.6,80,3.77,0.0,1023.06,270.0
2018-10-24 12:20,50.6304233333333,-96.98075,7.6,10.2,185,994.90,-0.6,79,3.77,0.0,1023.02,270.0
2018-10-24 12:30,50.6304183333333,-96.980755,5.7,8.3,185,994.84,-0.6,80,3.78,0.0,1022.97,270.0
2018-10-24 12:40,50.630415,-96.9807566666667,5.6,7.6,181,994.82,-0.7,80,3.78,0.0,1022.96,270.0
2018-10-24 12:50,50.6304133333333,-96.9807566666667,6.3,8.4,183,994.78,-0.7,80,3.75,0.0,1022.92,270.0
2018-10-24 13:00,50.6304133333333,-96.9807616666667,5.1,7.1,191,994.75,-0.7,81,3.74,0.0,1022.88,114.9
2018-10-24 13:10,50.63044,-96.9808116666667,3.6,5.4,200,994.75,-0.9,81,3.86,0.0,1022.89,114.9
2018-10-24 13:20,50.6304433333333,-96.9807833333333,5.0,6.7,196,994.66,-1.1,80,3.72,0.0,1022.82,114.9
2018-10-24 13:30,50.63044,-96.980775,3.4,5.4,192,994.61,-1.1,80,3.69,0.0,1022.76,114.9
2018-10-24 13:40,50.6304366666667,-96.980775,2.5,3.7,194,994.52,-0.9,79,3.69,0.0,1022.66,114.9
2018-10-24 13:50,50.6304366666667,-96.980775,3.6,4.4,200,994.39,-0.6,79,3.67,0.0,1022.51,114.9
2018-10-24 14:00,50.630435,-96.9807733333333,3.6,5.1,200,994.33,-0.5,79,3.67,0.0,1022.43,307.6
2018-10-24 14:10,50.630455,-96.98075,4.3,7.8,190,994.18,-0.2,78,3.66,0.0,1022.27,307.6
2018-10-24 14:20,50.63043,-96.9807716666667,8.7,12.1,175,993.99,0.5,79,3.65,0.0,1022.03,307.6
2018-10-24 14:30,50.6304183333333,-96.9807566666667,11.4,13.3,175,993.80,1.0,77,3.65,0.0,1021.82,307.6
2018-10-24 14:40,50.6304383333333,-96.9807383333333,10.8,12.7,175,993.82,1.2,76,3.66,0.0,1021.83,307.6
2018-10-24 14:50,50.630435,-96.980745,9.6,11.9,172,993.80,1.4,74,3.66,0.0,1021.80,307.6
2018-10-24 15:00,50.6304183333333,-96.98076,8.4,10.4,160,993.81,1.6,73,3.65,0.0,1021.80,165.5
2018-10-24 15:10,50.6304216666667,-96.9807516666667,10.0,11.5,153,993.74,1.8,72,3.63,0.0,1021.74,165.5
2018-10-24 15:20,50.630425,-96.9807483333333,10.6,12.3,150,993.74,1.9,73,3.64,0.0,1021.72,165.5
2018-10-24 15:30,50.6304266666667,-96.98075,10.7,12.7,149,993.70,2.2,74,3.67,0.0,1021.67,165.5
2018-10-24 15:40,50.630415,-96.9807583333333,10.1,12.9,139,993.70,2.6,76,3.66,0.0,1021.62,165.5
2018-10-24 15:50,50.6304233333333,-96.980765,10.9,13.6,143,993.60,2.5,75,3.67,0.0,1021.53,165.5
2018-10-24 16:00,50.6304233333333,-96.9807533333333,11.4,13.6,133,993.45,3.0,77,3.69,0.0,1021.33,14.5
2018-10-24 16:10,50.63042,-96.9807666666667,11.5,13.6,134,993.37,3.0,77,3.69,0.0,1021.21,14.5
2018-10-24 16:20,50.6304233333333,-96.9807666666667,11.5,15.1,142,993.17,2.9,74,3.70,0.0,1020.98,14.5
2018-10-24 16:30,50.6304216666667,-96.9807633333333,13.0,16.5,145,992.97,3.1,73,3.71,0.0,1020.76,14.5
2018-10-24 16:40,50.6304266666667,-96.98076,14.1,16.5,147,992.82,3.3,71,3.72,0.0,1020.58,14.5
2018-10-24 16:50,50.6304333333333,-96.9807616666667,14.8,17.3,148,992.66,3.6,70,3.73,0.0,1020.39,14.5
2018-10-24 17:00,50.6304383333333,-96.9807633333333,13.3,16.6,144,992.60,4.0,71,3.75,0.0,1020.30,12.6
2018-10-24 17:10,50.6304366666667,-96.9807616666667,14.0,17.0,145,992.38,4.2,69,3.75,0.0,1020.05,12.6
2018-10-24 17:20,50.6304333333333,-96.9807616666667,14.8,17.4,150,992.20,4.4,69,3.75,0.0,1019.85,12.6
2018-10-24 17:30,50.63043,-96.980755,13.9,16.0,150,992.02,4.5,70,3.77,0.0,1019.64,12.6
2018-10-24 17:40,50.6303983333333,-96.98074,13.2,15.5,151,991.87,4.7,69,3.78,0.0,1019.48,12.6
2018-10-24 17:50,50.6304166666667,-96.980755,13.4,17.3,155,991.62,5.0,66,3.79,0.0,1019.17,12.6
2018-10-24 18:00,50.6304216666667,-96.980755,12.9,15.0,153,991.37,5.1,67,3.80,0.0,1018.92,360.0
2018-10-24 18:10,50.6304166666667,-96.980755,13.2,15.8,153,991.13,5.2,67,3.82,0.0,1018.68,360.0
2018-10-24 18:20,50.6304133333333,-96.9807533333333,12.5,15.6,155,990.97,5.3,67,3.83,0.0,1018.49,360.0
2018-10-24 18:30,50.6304116666667,-96.9807533333333,11.8,15.9,159,990.83,5.6,67,3.85,0.0,1018.33,360.0
2018-10-24 18:40,50.6304116666667,-96.980755,11.4,14.5,162,990.74,5.7,67,3.87,0.0,1018.21,360.0
2018-10-24 18:50,50.63041,-96.9807566666667,12.6,15.5,154,990.50,5.9,66,3.89,0.0,1017.94,360.0
2018-10-24 19:00,50.6304383333333,-96.9807583333333,13.4,15.6,151,990.25,6.1,65,3.90,0.0,1017.66,336.5
2018-10-24 19:10,50.6303866666667,-96.9807616666667,14.0,16.1,151,990.04,6.4,63,3.91,0.0,1017.42,336.5
2018-10-24 19:20,50.6304,-96.98076,14.3,16.5,155,989.89,6.7,62,3.92,0.0,1017.24,336.5
2018-10-24 19:30,50.630435,-96.9807866666667,13.5,16.2,156,989.71,6.8,63,3.94,0.0,1017.04,336.5
2018-10-24 19:40,50.6304183333333,-96.98077,10.8,14.9,162,989.62,6.8,65,3.96,0.0,1016.94,336.5
2018-10-24 19:50,50.63042,-96.9807666666667,11.4,14.9,161,989.44,7.1,62,3.96,0.0,1016.73,336.5
2018-10-24 20:00,50.6304183333333,-96.980765,14.5,17.2,153,989.23,7.8,56,3.97,0.0,1016.47,360.0
2018-10-24 20:10,50.6304133333333,-96.980755,13.4,15.5,149,989.07,7.9,56,3.99,0.0,1016.30,360.0
2018-10-24 20:20,50.6304383333333,-96.98077,12.9,14.8,148,988.99,8.1,56,4.01,0.0,1016.19,360.0
2018-10-24 20:30,50.6304316666667,-96.98076,14.5,16.6,150,988.79,8.1,57,4.02,0.0,1015.98,360.0
2018-10-24 20:40,50.630425,-96.98076,15.0,16.6,151,988.61,8.3,55,4.02,0.0,1015.79,360.0
2018-10-24 20:50,50.6304233333333,-96.9807583333333,14.4,16.5,151,988.50,8.4,55,4.04,0.0,1015.65,360.0
2018-10-24 21:00,50.630425,-96.9807583333333,13.1,14.8,153,988.39,8.3,57,4.05,0.0,1015.53,360.0
2018-10-24 21:10,50.6304266666667,-96.98076,13.8,15.7,153,988.19,8.4,55,4.07,0.0,1015.30,360.0
2018-10-24 21:20,50.6304266666667,-96.98076,12.5,16.1,156,988.09,8.8,53,4.08,0.0,1015.17,360.0
2018-10-24 21:30,50.6304283333333,-96.9807583333333,12.1,14.2,154,988.00,8.9,53,4.09,0.0,1015.09,360.0
2018-10-24 21:40,50.6304266666667,-96.98076,12.9,14.1,151,987.90,8.9,53,4.09,0.0,1014.97,360.0
2018-10-24 21:50,50.630425,-96.9807583333333,11.0,12.7,153,987.87,9.0,53,4.09,0.0,1014.89,360.0
2018-10-24 22:00,50.6304266666667,-96.9807583333333,9.1,11.0,154,987.83,8.7,55,4.10,0.0,1014.85,360.0
2018-10-24 22:10,50.6304266666667,-96.98076,7.0,9.9,152,987.79,8.4,60,4.11,0.0,1014.83,360.0
2018-10-24 22:20,50.6304266666667,-96.98076,8.1,10.3,161,987.70,8.1,61,4.12,0.0,1014.74,360.0
2018-10-24 22:30,50.6304266666667,-96.98076,8.0,9.9,164,987.63,7.6,64,4.13,0.0,1014.69,360.0
2018-10-24 22:40,50.6304266666667,-96.9807583333333,9.0,10.7,170,987.57,7.0,67,4.13,0.0,1014.65,360.0
2018-10-24 22:50,50.6304433333333,-96.9807433333333,7.8,9.2,168,987.54,6.8,68,4.14,0.0,1014.64,360.0
2018-10-24 23:00,50.6304283333333,-96.98075,9.2,10.3,173,987.45,6.8,68,4.15,0.0,1014.54,36.6
2018-10-24 23:10,50.63043,-96.9807533333333,9.2,10.6,170,987.41,6.7,69,4.15,0.0,1014.49,36.6
2018-10-24 23:20,50.63043,-96.9807516666667,7.3,9.5,167,987.50,6.5,71,4.14,0.0,1014.58,36.6
2018-10-24 23:30,50.6304316666667,-96.9807533333333,7.8,9.5,160,987.50,6.6,70,4.14,0.0,1014.57,36.6
2018-10-24 23:40,50.6304333333333,-96.9807516666667,8.8,10.8,168,987.42,6.8,68,4.14,0.0,1014.47,36.6
